Weather History for KCOE - November, 2011

Change the Weather History Date:

Thursday, November 17, 2011

  Actual Average Record
Temperature  
Mean Temperature 37 °F -  
Max Temperature 42 °F 40 °F 55 °F (2008)
Min Temperature 32 °F 28 °F 6 °F (2000)
Degree Days  
Heating Degree Days 28    
Moisture  
Dew Point 27 °F    
Average Humidity 68    
Maximum Humidity 87    
Minimum Humidity 45    
Precipitation  
Precipitation 0.02 in - - ()
Sea Level Pressure  
Sea Level Pressure 29.67 in    
Wind  
Wind Speed 14 mph (SW)    
Max Wind Speed 34 mph    
Max Gust Speed 44 mph    
Visibility 10 miles    
Events      
Averages and records for this station are not official NWS values.
T = Trace of Precipitation, MM = Missing Value Source: NWS Daily Summary

Daily Weather History Graph

Daily Weather History Graph

Search for Another Location

Airport or City:

Trip Planner

Search our weather history database for the weather conditions in past years. The results will help you decide how hot, cold, wet, or windy it might be!

Date:

Astronomy

Nov. 17, 2011 Rise Set
Actual Time 6:55 AM PST 4:08 PM PST
Civil Twilight 6:21 AM PST 4:42 PM PST
Nautical Twilight 5:44 AM PST 5:19 PM PST
Astronomical Twilight 5:07 AM PST 5:56 PM PST
Moon 10:44 PM PST (11/17) 11:59 AM PST (11/17)
Length of Visible Light 10h 20m
Length of Day
9h 12m
Waning Gibbous, 59% of the Moon is Illuminated
Nov 17
Waning Gibbous
Nov 18
Last Quarter
Nov 24
New
Dec 2
First Quarter
Dec 10
Full

Hourly Weather History & Observations

Time (PST) Temp. Windchill Dew Point Humidity Pressure Visibility Wind Dir Wind Speed Gust Speed Precip Events Conditions
12:15 AM 35.6 °F 28.6 °F 30.2 °F 81% 29.66 in 9.0 mi South 9.2 mph - 0.01 in   Overcast
12:35 AM 35.6 °F 28.0 °F 30.2 °F 81% 29.64 in 8.0 mi South 10.4 mph - 0.02 in   Overcast
1:15 AM 35.6 °F 29.2 °F 30.2 °F 81% 29.62 in 7.0 mi South 8.1 mph - N/A   Overcast
1:35 AM 35.6 °F 28.0 °F 30.2 °F 81% 29.59 in 5.0 mi South 10.4 mph - N/A   Overcast
1:55 AM 37.4 °F 28.5 °F 30.2 °F 75% 29.58 in 10.0 mi South 15.0 mph 23.0 mph N/A   Overcast
2:15 AM 35.6 °F 28.6 °F 28.4 °F 75% 29.57 in 7.0 mi SSE 9.2 mph - N/A   Overcast
2:35 AM 37.4 °F 29.3 °F 32.0 °F 81% 29.57 in 10.0 mi South 12.7 mph - N/A   Overcast
2:55 AM 37.4 °F 28.5 °F 33.8 °F 87% 29.55 in 10.0 mi South 15.0 mph 24.2 mph 0.02 in   Mostly Cloudy
3:15 AM 39.2 °F 28.5 °F 33.8 °F 81% 29.54 in 10.0 mi South 24.2 mph 32.2 mph N/A   Mostly Cloudy
3:35 AM 39.2 °F 29.8 °F 33.8 °F 81% 29.56 in 10.0 mi SSW 18.4 mph 29.9 mph N/A   Overcast
3:55 AM 42.8 °F 31.6 °F 35.6 °F 76% 29.56 in 10.0 mi WSW 34.5 mph 43.7 mph N/A   Overcast
4:15 AM 42.8 °F 33.5 °F 35.6 °F 76% 29.56 in 10.0 mi SW 23.0 mph 34.5 mph N/A   Overcast
4:35 AM 41.0 °F 31.1 °F 33.8 °F 76% 29.56 in 10.0 mi WSW 23.0 mph 27.6 mph N/A   Overcast
4:55 AM 41.0 °F 31.6 °F 32.0 °F 70% 29.57 in 10.0 mi WSW 20.7 mph 28.8 mph N/A   Overcast
5:15 AM 39.2 °F 32.0 °F 33.8 °F 81% 29.58 in 10.0 mi WSW 11.5 mph 20.7 mph N/A   Mostly Cloudy
5:35 AM 39.2 °F 30.5 °F 32.0 °F 75% 29.59 in 10.0 mi WSW 16.1 mph 21.9 mph N/A   Mostly Cloudy
5:55 AM 37.4 °F 27.5 °F 30.2 °F 75% 29.60 in 10.0 mi WSW 18.4 mph 26.5 mph N/A   Partly Cloudy
6:15 AM 37.4 °F 28.2 °F 28.4 °F 70% 29.61 in 10.0 mi WSW 16.1 mph 23.0 mph N/A   Clear
6:35 AM 37.4 °F 28.9 °F 28.4 °F 70% 29.63 in 10.0 mi WSW 13.8 mph 20.7 mph N/A   Clear
6:55 AM 35.6 °F 28.0 °F 28.4 °F 75% 29.64 in 10.0 mi West 10.4 mph - N/A   Partly Cloudy
7:15 AM 35.6 °F 29.2 °F 26.6 °F 70% 29.66 in 10.0 mi West 8.1 mph - N/A   Partly Cloudy
7:35 AM 35.6 °F 25.9 °F 26.6 °F 70% 29.67 in 10.0 mi WSW 16.1 mph 20.7 mph N/A   Clear
7:55 AM 37.4 °F 26.9 °F 24.8 °F 60% 29.68 in 10.0 mi WSW 20.7 mph 29.9 mph N/A   Scattered Clouds
8:15 AM 37.4 °F 26.9 °F 24.8 °F 60% 29.69 in 10.0 mi WSW 20.7 mph 35.7 mph N/A   Mostly Cloudy
8:35 AM 37.4 °F 26.1 °F 26.6 °F 65% 29.71 in 10.0 mi WSW 24.2 mph 31.1 mph N/A   Mostly Cloudy
8:55 AM 35.6 °F 25.9 °F 24.8 °F 65% 29.72 in 10.0 mi WSW 16.1 mph 31.1 mph N/A   Mostly Cloudy
9:15 AM 37.4 °F 26.4 °F 26.6 °F 65% 29.73 in 10.0 mi WSW 23.0 mph 26.5 mph N/A   Mostly Cloudy
9:35 AM 37.4 °F 26.9 °F 26.6 °F 65% 29.73 in 10.0 mi WSW 20.7 mph 28.8 mph N/A   Scattered Clouds
9:55 AM 39.2 °F 29.6 °F 26.6 °F 61% 29.73 in 10.0 mi SW 19.6 mph 25.3 mph N/A   Partly Cloudy
10:15 AM 39.2 °F 29.3 °F 24.8 °F 56% 29.73 in 10.0 mi WSW 20.7 mph 27.6 mph N/A   Clear
10:35 AM 39.2 °F 29.0 °F 24.8 °F 56% 29.73 in 10.0 mi WSW 21.9 mph - N/A   Clear
10:55 AM 39.2 °F 29.3 °F 24.8 °F 56% 29.74 in 10.0 mi WSW 20.7 mph 31.1 mph N/A   Clear
11:15 AM 41.0 °F 32.2 °F 24.8 °F 53% 29.74 in 10.0 mi WSW 18.4 mph 26.5 mph N/A   Partly Cloudy
11:35 AM 39.2 °F 29.6 °F 24.8 °F 56% 29.74 in 10.0 mi WSW 19.6 mph 29.9 mph N/A   Partly Cloudy
12:15 PM 39.2 °F 29.6 °F 23.0 °F 52% 29.74 in 10.0 mi WSW 19.6 mph 24.2 mph N/A   Clear
12:35 PM 41.0 °F 31.4 °F 21.2 °F 45% 29.73 in 10.0 mi WSW 21.9 mph 28.8 mph N/A   Clear
12:55 PM 39.2 °F 29.6 °F 24.8 °F 56% 29.72 in 10.0 mi SW 19.6 mph 27.6 mph N/A   Partly Cloudy
1:15 PM 41.0 °F 31.9 °F 26.6 °F 57% 29.73 in 10.0 mi WSW 19.6 mph 27.6 mph N/A   Partly Cloudy
1:35 PM 39.2 °F 29.6 °F 24.8 °F 56% 29.73 in 10.0 mi WSW 19.6 mph 27.6 mph N/A   Partly Cloudy
1:55 PM 39.2 °F 30.2 °F 24.8 °F 56% 29.73 in 10.0 mi WSW 17.3 mph - N/A   Clear
2:15 PM 39.2 °F 30.8 °F 24.8 °F 56% 29.73 in 10.0 mi WSW 15.0 mph 21.9 mph N/A   Partly Cloudy
2:35 PM 37.4 °F 27.5 °F 24.8 °F 60% 29.73 in 10.0 mi WSW 18.4 mph 23.0 mph N/A   Clear
2:55 PM 37.4 °F 28.9 °F 24.8 °F 60% 29.73 in 10.0 mi SW 13.8 mph - N/A   Clear
3:15 PM 37.4 °F 28.5 °F 24.8 °F 60% 29.73 in 10.0 mi SW 15.0 mph 19.6 mph N/A   Clear
3:35 PM 35.6 °F 28.0 °F 24.8 °F 65% 29.73 in 10.0 mi SW 10.4 mph - N/A   Partly Cloudy
3:55 PM 35.6 °F 27.1 °F 24.8 °F 65% 29.72 in 10.0 mi SW 12.7 mph - N/A   Mostly Cloudy
4:15 PM 35.6 °F 27.5 °F 23.0 °F 60% 29.72 in 10.0 mi WSW 11.5 mph - N/A   Mostly Cloudy
4:35 PM 35.6 °F 28.0 °F 24.8 °F 65% 29.72 in 10.0 mi SW 10.4 mph - N/A   Overcast
4:55 PM 35.6 °F 29.2 °F 21.2 °F 56% 29.72 in 10.0 mi SW 8.1 mph - N/A   Overcast
5:35 PM 32.0 °F - 19.4 °F 60% 29.71 in 10.0 mi Calm Calm - N/A   Clear
5:55 PM 33.8 °F 28.6 °F 23.0 °F 65% 29.71 in 10.0 mi SSE 5.8 mph - N/A   Mostly Cloudy
6:15 PM 35.6 °F 29.2 °F 24.8 °F 65% 29.70 in 10.0 mi SSE 8.1 mph - N/A   Overcast
6:35 PM 35.6 °F 29.9 °F 24.8 °F 65% 29.69 in 10.0 mi SSE 6.9 mph - N/A   Overcast
6:55 PM 33.8 °F 27.7 °F 26.6 °F 75% 29.68 in 10.0 mi SSE 6.9 mph - N/A   Partly Cloudy
7:35 PM 32.0 °F 27.5 °F 24.8 °F 75% 29.67 in 10.0 mi SSE 4.6 mph - N/A   Clear
7:55 PM 33.8 °F 28.6 °F 24.8 °F 70% 29.66 in 10.0 mi SSE 5.8 mph - N/A   Scattered Clouds
8:35 PM 33.8 °F 25.8 °F 24.8 °F 70% 29.65 in 10.0 mi South 10.4 mph - N/A   Scattered Clouds
8:55 PM 33.8 °F 27.7 °F 24.8 °F 70% 29.65 in 10.0 mi South 6.9 mph - N/A   Mostly Cloudy
9:15 PM 33.8 °F 25.3 °F 24.8 °F 70% 29.64 in 6.0 mi SSE 11.5 mph - N/A   Overcast
9:35 PM 32.0 °F 26.4 °F 26.6 °F 80% 29.64 in 10.0 mi SSE 5.8 mph - N/A   Overcast
9:55 PM 32.0 °F 26.4 °F 28.4 °F 87% 29.64 in 1.2 mi South 5.8 mph - N/A   Overcast
10:15 PM 32.0 °F 28.7 °F 26.6 °F 80% 29.63 in 1.8 mi SE 3.5 mph - N/A   Overcast
10:35 PM 32.0 °F 28.7 °F 26.6 °F 80% 29.62 in 5.0 mi SE 3.5 mph - N/A   Overcast
10:55 PM 32.0 °F 28.7 °F 28.4 °F 87% 29.62 in 3.0 mi SSE 3.5 mph - 0.02 in   Overcast
11:15 PM 32.0 °F - 26.6 °F 80% 29.62 in 8.0 mi Calm Calm - 0.01 in   Overcast
11:35 PM 30.2 °F 26.7 °F 26.6 °F 86% 29.61 in 10.0 mi ESE 3.5 mph - 0.02 in   Overcast
11:55 PM 30.2 °F 26.7 °F 24.8 °F 80% 29.60 in 10.0 mi East 3.5 mph - 0.02 in   Overcast